Total_Precipitation_Accumulation
0.79 0.94 1.24 1.61 1.76 1.29 0.84 0.53 0.36 0.33 0.35 0.26 0.15 0.12 0.27 0.55 0.79 0.91 0.66 0.57 0.44 0.34 0.27 0.39 0.60 0.59 0.54 0.54 0.53 0.60 0.60 0.65 0.57 0.50 0.39 0.31 0.26 0.23 0.18 0.14 0.13 0.13 0.12 0.12 0.15 0.27 0.29 0.26 0.35
0.66 1.31 1.61 1.98 1.52 0.85 0.67 0.51 0.42 0.39 0.30 0.20 0.12 0.10 0.20 0.23 0.26 0.42 0.76 0.79 0.50 0.45 0.38 0.43 0.61 0.60 0.59 0.61 0.66 0.74 0.73 0.79 0.75 0.56 0.42 0.31 0.30 0.34 0.28 0.24 0.31 0.18 0.11 0.11 0.15 0.24 0.29 0.27 0.32
0.81 1.47 1.92 1.93 0.99 0.68 0.69 0.58 0.48 0.39 0.22 0.17 0.13 0.10 0.17 0.25 0.41 0.58 0.93 0.78 0.61 0.55 0.51 0.65 0.79 0.72 0.70 0.68 0.82 0.90 0.88 0.91 0.79 0.53 0.37 0.33 0.38 0.44 0.45 0.44 0.43 0.22 0.14 0.12 0.15 0.22 0.26 0.25 0.25
0.92 1.49 1.67 1.27 0.84 0.69 0.66 0.59 0.38 0.33 0.20 0.10 0.11 0.14 0.13 0.28 0.46 0.65 0.75 0.66 0.59 0.59 0.56 0.69 0.86 0.84 0.80 0.76 0.89 0.99 1.05 1.05 0.92 0.62 0.47 0.45 0.51 0.52 0.52 0.56 0.41 0.28 0.22 0.17 0.17 0.20 0.23 0.21 0.21
0.98 1.50 1.40 1.01 0.85 0.76 0.60 0.44 0.32 0.29 0.21 0.10 0.09 0.21 0.20 0.32 0.54 0.64 0.66 0.63 0.55 0.56 0.50 0.55 0.73 0.81 0.83 0.86 0.99 1.06 1.11 1.12 1.03 0.81 0.66 0.57 0.54 0.55 0.57 0.60 0.45 0.34 0.27 0.24 0.23 0.23 0.24 0.24 0.23
1.07 1.27 1.33 1.01 0.86 0.83 0.72 0.49 0.34 0.27 0.21 0.18 0.19 0.28 0.26 0.34 0.53 0.68 0.72 0.77 0.78 0.72 0.60 0.52 0.61 0.71 0.77 0.83 0.97 1.06 1.09 1.07 1.01 0.85 0.73 0.65 0.60 0.55 0.60 0.63 0.51 0.43 0.35 0.28 0.28 0.30 0.31 0.28 0.25
0.93 1.10 1.15 0.79 0.84 1.05 0.79 0.45 0.38 0.30 0.30 0.26 0.22 0.34 0.39 0.42 0.49 0.64 0.79 0.86 0.92 0.87 0.77 0.61 0.60 0.67 0.80 0.93 0.98 0.99 0.99 0.98 0.95 0.82 0.75 0.69 0.62 0.53 0.53 0.54 0.46 0.43 0.40 0.36 0.35 0.34 0.33 0.28 0.27
0.59 0.68 0.78 0.81 0.90 1.10 0.60 0.36 0.26 0.23 0.22 0.21 0.23 0.40 0.47 0.42 0.47 0.62 0.89 1.00 1.05 1.00 0.88 0.72 0.65 0.66 0.71 0.75 0.88 0.98 1.02 1.01 0.99 0.85 0.75 0.69 0.61 0.50 0.49 0.43 0.40 0.42 0.45 0.48 0.45 0.38 0.34 0.30 0.27
0.60 0.68 0.92 1.06 0.89 0.79 0.41 0.33 0.22 0.18 0.23 0.27 0.21 0.26 0.32 0.33 0.44 0.59 0.76 0.87 0.95 0.93 0.89 0.92 0.89 0.86 0.84 0.77 0.82 0.99 1.07 1.09 0.99 0.91 0.84 0.74 0.54 0.45 0.48 0.42 0.48 0.53 0.59 0.61 0.57 0.48 0.38 0.32 0.27
0.67 0.80 0.95 0.79 0.60 0.48 0.34 0.31 0.24 0.21 0.26 0.26 0.22 0.25 0.34 0.34 0.43 0.56 0.62 0.68 0.67 0.69 0.72 0.78 0.84 0.93 0.95 0.85 1.03 1.27 1.15 1.02 0.83 0.86 0.77 0.73 0.67 0.64 0.50 0.51 0.61 0.68 0.69 0.65 0.63 0.59 0.46 0.34 0.24
0.62 0.68 0.58 0.56 0.46 0.33 0.30 0.27 0.25 0.24 0.26 0.23 0.23 0.24 0.29 0.35 0.40 0.46 0.52 0.59 0.60 0.63 0.62 0.63 0.69 0.78 0.87 0.99 1.20 1.51 1.55 1.33 1.14 0.97 0.89 0.86 0.74 0.66 0.59 0.55 0.59 0.63 0.64 0.53 0.53 0.53 0.39 0.30 0.26
0.52 0.38 0.34 0.40 0.37 0.32 0.28 0.21 0.21 0.20 0.20 0.18 0.19 0.22 0.28 0.36 0.41 0.44 0.46 0.49 0.51 0.53 0.57 0.49 0.46 0.58 0.68 0.79 0.91 1.20 1.27 1.21 1.08 0.91 0.84 0.89 0.84 0.73 0.67 0.64 0.67 0.65 0.62 0.65 0.66 0.65 0.56 0.41 0.32
0.58 0.44 0.35 0.36 0.35 0.31 0.25 0.22 0.21 0.18 0.17 0.15 0.17 0.22 0.30 0.36 0.39 0.41 0.42 0.45 0.49 0.56 0.59 0.54 0.45 0.46 0.50 0.55 0.62 0.76 0.92 1.03 1.03 0.98 0.83 0.82 0.80 0.75 0.75 0.70 0.73 0.64 0.61 0.66 0.70 0.68 0.68 0.58 0.44
0.39 0.36 0.39 0.37 0.31 0.27 0.23 0.20 0.21 0.22 0.20 0.19 0.20 0.25 0.30 0.36 0.40 0.46 0.47 0.49 0.47 0.51 0.63 0.62 0.52 0.48 0.50 0.47 0.47 0.48 0.61 0.76 0.92 0.93 0.83 0.84 0.85 0.80 0.84 0.80 0.78 0.74 0.68 0.70 0.84 0.75 0.75 0.70 0.58
0.31 0.35 0.36 0.32 0.31 0.28 0.24 0.23 0.21 0.24 0.24 0.25 0.25 0.25 0.30 0.35 0.39 0.47 0.50 0.47 0.45 0.45 0.50 0.57 0.54 0.56 0.60 0.59 0.59 0.49 0.52 0.59 0.73 0.85 0.83 0.88 0.84 0.77 0.81 0.82 0.77 0.76 0.77 0.77 0.82 0.82 0.81 0.68 0.58
0.38 0.42 0.55 0.48 0.45 0.41 0.36 0.30 0.22 0.27 0.24 0.24 0.28 0.28 0.31 0.33 0.36 0.44 0.47 0.47 0.47 0.47 0.50 0.54 0.56 0.62 0.68 0.74 0.75 0.69 0.74 0.76 0.77 0.90 0.87 0.83 0.85 0.82 0.81 0.86 0.87 0.91 0.94 0.90 0.90 0.92 0.90 0.79 0.70
0.47 0.47 0.47 0.43 0.36 0.36 0.31 0.26 0.25 0.30 0.25 0.21 0.22 0.25 0.25 0.25 0.26 0.32 0.38 0.40 0.42 0.43 0.44 0.48 0.56 0.61 0.64 0.72 0.85 0.97 1.02 1.01 0.96 0.99 0.95 0.85 0.84 0.89 1.00 1.00 1.06 1.04 1.05 1.05 1.01 0.99 0.91 0.87 0.79
0.54 0.33 0.24 0.24 0.26 0.26 0.22 0.23 0.25 0.26 0.24 0.19 0.17 0.18 0.19 0.18 0.19 0.22 0.26 0.29 0.31 0.33 0.36 0.41 0.49 0.65 0.79 0.87 0.92 1.07 1.12 1.20 1.28 1.33 1.21 1.08 1.09 1.21 1.34 1.39 1.33 1.31 1.29 1.27 1.21 1.25 1.14 0.94 0.89
0.39 0.26 0.20 0.18 0.20 0.20 0.17 0.17 0.18 0.18 0.18 0.16 0.13 0.12 0.13 0.12 0.11 0.12 0.14 0.18 0.20 0.22 0.27 0.33 0.39 0.55 0.69 0.79 0.91 1.10 1.28 1.45 1.61 1.73 1.62 1.47 1.43 1.59 1.69 1.60 1.66 1.67 1.52 1.50 1.55 1.58 1.50 1.22 1.04
0.32 0.25 0.19 0.13 0.12 0.11 0.10 0.11 0.13 0.13 0.12 0.11 0.11 0.10 0.09 0.09 0.07 0.06 0.06 0.09 0.10 0.12 0.17 0.23 0.30 0.41 0.55 0.70 0.93 1.15 1.45 1.54 1.63 1.77 1.81 1.74 1.67 1.80 1.82 1.88 1.92 1.94 1.92 1.86 1.73 1.77 1.83 1.58 1.32
0.19 0.20 0.20 0.15 0.10 0.07 0.06 0.07 0.08 0.10 0.09 0.08 0.07 0.09 0.09 0.07 0.06 0.04 0.04 0.05 0.07 0.08 0.10 0.17 0.28 0.44 0.65 0.88 1.18 1.48 1.72 1.80 1.84 1.79 1.85 1.93 1.97 2.03 2.04 2.08 2.12 2.09 1.93 1.91 1.98 2.05 2.34 2.11 1.72
0.20 0.11 0.10 0.10 0.10 0.09 0.09 0.13 0.09 0.11 0.13 0.12 0.11 0.12 0.14 0.12 0.08 0.06 0.06 0.07 0.08 0.11 0.15 0.24 0.40 0.61 0.89 1.23 1.57 1.81 2.03 2.12 1.95 1.93 1.97 1.97 1.92 1.94 2.04 2.05 2.04 2.00 1.92 1.97 2.02 2.03 2.33 2.47 2.14
0.12 0.09 0.08 0.09 0.09 0.07 0.05 0.09 0.10 0.14 0.21 0.22 0.19 0.19 0.20 0.18 0.14 0.12 0.14 0.15 0.19 0.24 0.32 0.47 0.71 1.00 1.28 1.50 1.69 1.90 2.03 2.04 2.01 1.97 1.97 1.90 1.86 1.82 1.84 1.84 1.91 1.94 1.98 2.02 2.14 2.20 2.40 2.40 2.35
0.09 0.08 0.08 0.09 0.11 0.08 0.05 0.11 0.18 0.22 0.24 0.23 0.21 0.20 0.18 0.17 0.19 0.21 0.23 0.29 0.36 0.40 0.54 0.72 0.90 1.18 1.35 1.47 1.59 1.79 1.93 1.97 1.98 1.96 1.97 1.96 1.92 1.80 1.72 1.71 1.75 1.86 2.01 2.05 2.09 2.17 2.38 2.48 2.54
0.07 0.09 0.13 0.14 0.17 0.16 0.13 0.24 0.34 0.31 0.26 0.22 0.21 0.21 0.19 0.22 0.27 0.28 0.38 0.52 0.60 0.64 0.72 0.86 0.95 1.12 1.22 1.27 1.36 1.51 1.58 1.65 1.71 1.69 1.65 1.59 1.53 1.51 1.52 1.60 1.68 1.79 1.91 1.97 2.05 2.18 2.19 2.28 2.53
0.03 0.06 0.17 0.22 0.23 0.24 0.24 0.45 0.50 0.37 0.30 0.27 0.24 0.21 0.24 0.33 0.42 0.54 0.67 0.77 0.84 0.85 0.81 0.83 0.95 1.00 0.98 1.01 1.02 1.14 1.23 1.30 1.37 1.38 1.36 1.39 1.40 1.40 1.33 1.37 1.46 1.66 1.85 1.93 2.00 2.00 1.98 2.01 2.18
0.03 0.06 0.11 0.22 0.20 0.22 0.32 0.61 0.61 0.38 0.32 0.28 0.25 0.26 0.32 0.46 0.66 0.89 1.07 1.18 1.26 1.17 0.98 0.84 0.84 0.83 0.80 0.86 0.90 0.95 1.05 1.09 1.12 1.15 1.11 1.20 1.23 1.21 1.15 1.16 1.19 1.28 1.51 1.75 1.91 1.84 1.75 1.73 1.84
0.05 0.10 0.19 0.35 0.40 0.37 0.44 0.66 0.68 0.51 0.41 0.35 0.36 0.46 0.62 0.82 1.09 1.34 1.59 1.70 1.68 1.49 1.22 0.94 0.79 0.74 0.70 0.73 0.78 0.85 0.89 0.90 0.89 0.92 0.88 0.94 1.03 1.02 1.02 0.99 1.02 1.13 1.24 1.44 1.66 1.74 1.69 1.65 1.67
0.11 0.19 0.27 0.41 0.48 0.58 0.68 0.84 0.74 0.69 0.64 0.61 0.68 0.86 1.07 1.34 1.52 1.66 1.81 1.86 1.60 1.42 1.17 0.92 0.77 0.79 0.78 0.78 0.78 0.78 0.76 0.74 0.74 0.74 0.71 0.72 0.77 0.77 0.80 0.95 1.00 1.06 1.13 1.29 1.54 1.70 1.72 1.64 1.61
0.24 0.38 0.52 0.74 0.71 0.68 0.85 0.96 0.76 0.71 0.79 0.83 0.94 1.00 1.10 1.25 1.27 1.35 1.41 1.36 1.32 1.27 1.10 0.94 0.85 0.85 0.88 0.88 0.86 0.78 0.70 0.67 0.67 0.64 0.57 0.57 0.53 0.53 0.64 0.76 0.81 0.85 0.88 1.04 1.32 1.51 1.54 1.48 1.40